Hourly Data Report for July 20, 2012

HALIFAX STANFIELD INT'L A
NOVA SCOTIA

44°52'48.060" N
63°30'00.050" W
145.40 m
8202250
71395
YHZ

Download Data

Hourly Data (July 2012)
Hourly Data Report for July 20, 2012
TIME
LST
Temp Definition
°C
Dew Point Definition
°C
Rel Hum Definition
%
Precip. Amount Definition
mm

Wind Dir Definition
10's deg

Wind Spd Definition
km/h
Visibility Definition
km
Stn Press Definition
kPa
Hmdx Definition


Wind Chill Definition


Weather Definition


00:00 15.4 9.1 66   30 22 24.1 99.38     Clear
01:00 14.9 8.7 66   30 24 24.1 99.38     Clear
02:00 14.5 8.7 68   31 26 24.1 99.42     Clear
03:00 13.9 9.1 73   31 24 24.1 99.45     Clear
04:00 13.1 9.4 78   31 22 24.1 99.50     Mainly Clear
05:00 12.8 9.9 83   30 20 24.1 99.55     Mainly Clear
06:00 13.6 10.9 84   32 19 24.1 99.62     Mostly Cloudy
07:00 15.1 11.2 78   34 24 24.1 99.70     Mainly Clear
08:00 16.9 11.3 70   36 24 24.1 99.73     Mostly Cloudy
09:00 17.2 9.9 62   36 30 24.1 99.78     Mainly Clear
10:00 19.1 8.9 52   35 24 24.1 99.81     Mainly Clear
11:00 19.9 8.9 49   34 22 24.1 99.82     Mainly Clear
12:00 19.7 9.9 53   36 20 24.1 99.85     Mostly Cloudy
13:00 20.3 9.9 51   33 26 24.1 99.87     Mostly Cloudy
14:00 21.4 9.5 47   34 24 24.1 99.89     Mostly Cloudy
15:00 21.5 9.2 45   36 24 24.1 99.89     Mostly Cloudy
16:00 19.8 9.7 52   1 20 24.1 99.92     Mostly Cloudy
17:00 19.1 10.8 59   3 19 24.1 99.96     Mostly Cloudy
18:00 18.7 10.5 59   3 13 24.1 99.99     Mostly Cloudy
19:00 17.9 10.6 62   1 13 24.1 100.03     Mainly Clear
20:00 17.3 10.2 63   5 4 24.1 100.06     Mainly Clear
21:00 15.3 10.1 71   6 9 24.1 100.12     Mainly Clear
22:00 15.0 9.5 70   8 7 24.1 100.15     Mainly Clear
23:00 14.0 9.1 72   6 9 24.1 100.15     Mainly Clear

Notes on Data Quality.

Legend

  • E = Estimated
  • M = Missing
  • NA = Not Available*
  • [empty] = Indicates an unobserved value
Date modified: